| time (UTC) | temp F | wind direction | speed MPH | gust MPH | rain 1hr in | rain 24hr in | rain mn in | humidity % | barometer mb |
| 20260507140547 | 53 | 30 | 4.0 | 9.0 | 0.00 | 0.15 | 0.00 | 58 | 1010.9 |
| 20260507140044 | 53 | 30 | 2.0 | 8.0 | 0.00 | 0.15 | 0.00 | 59 | 1010.9 |
| 20260507135544 | 52 | 330 | 3.0 | 9.0 | 0.00 | 0.22 | 0.00 | 58 | 1010.9 |
| 20260507135043 | 52 | 340 | 4.0 | 9.0 | 0.00 | 0.22 | 0.00 | 57 | 1011.1 |
| 20260507134543 | 52 | 357 | 2.0 | 9.0 | 0.00 | 0.22 | 0.00 | 57 | 1011.1 |
| 20260507134042 | 52 | 331 | 3.0 | 9.0 | 0.00 | 0.22 | 0.00 | 61 | 1011.3 |
| 20260507133542 | 52 | 4 | 2.0 | 5.0 | 0.00 | 0.22 | 0.00 | 58 | 1011.3 |
| 20260507133042 | 52 | 338 | 3.0 | 6.0 | 0.00 | 0.22 | 0.00 | 60 | 1011.3 |
| 20260507132540 | 52 | 346 | 3.0 | 6.0 | 0.00 | 0.22 | 0.00 | 61 | 1011.1 |
| 20260507132040 | 51 | 6 | 3.0 | 7.0 | 0.00 | 0.22 | 0.00 | 63 | 1011.2 |
| 20260507131551 | 51 | 353 | 2.0 | 8.0 | 0.00 | 0.22 | 0.00 | 62 | 1011.3 |
| 20260507131040 | 51 | 334 | 2.0 | 8.0 | 0.00 | 0.22 | 0.00 | 64 | 1011.3 |
| 20260507130541 | 51 | 333 | 3.0 | 8.0 | 0.00 | 0.22 | 0.00 | 62 | 1011.3 |
| 20260507130043 | 51 | 333 | 3.0 | 6.0 | 0.00 | 0.22 | 0.00 | 64 | 1011.2 |
| 20260507125540 | 51 | 339 | 3.0 | 9.0 | 0.00 | 0.24 | 0.00 | 63 | 1011.3 |
| 20260507125040 | 50 | 324 | 3.0 | 9.0 | 0.00 | 0.24 | 0.00 | 65 | 1011.3 |
| 20260507124538 | 50 | 349 | 5.0 | 10.0 | 0.00 | 0.24 | 0.00 | 64 | 1011.2 |
| 20260507124037 | 50 | 359 | 6.0 | 10.0 | 0.00 | 0.24 | 0.00 | 63 | 1011.2 |
| 20260507123537 | 50 | 349 | 6.0 | 10.0 | 0.00 | 0.24 | 0.00 | 63 | 1011.0 |
| 20260507123042 | 50 | 326 | 3.0 | 9.0 | 0.00 | 0.24 | 0.00 | 65 | 1011.1 |
| 20260507122536 | 50 | 338 | 3.0 | 10.0 | 0.00 | 0.24 | 0.00 | 65 | 1011.0 |
| 20260507122037 | 50 | 336 | 4.0 | 10.0 | 0.00 | 0.24 | 0.00 | 64 | 1010.9 |
| 20260507121542 | 50 | 336 | 4.0 | 9.0 | 0.00 | 0.24 | 0.00 | 65 | 1011.0 |
| 20260507121036 | 50 | 336 | 4.0 | 9.0 | 0.00 | 0.24 | 0.00 | 66 | 1011.1 |
| 20260507120535 | 49 | 333 | 2.0 | 7.0 | 0.00 | 0.24 | 0.00 | 66 | 1011.0 |
| 20260507120035 | 49 | 338 | 1.0 | 8.0 | 0.00 | 0.24 | 0.00 | 66 | 1011.1 |
| 20260507115535 | 49 | 345 | 4.0 | 8.0 | 0.00 | 0.28 | 0.00 | 67 | 1011.0 |
| 20260507115034 | 49 | 326 | 3.0 | 8.0 | 0.00 | 0.28 | 0.00 | 66 | 1011.0 |
| 20260507114535 | 49 | 348 | 3.0 | 8.0 | 0.00 | 0.28 | 0.00 | 66 | 1010.9 |
| 20260507114034 | 49 | 334 | 2.0 | 8.0 | 0.00 | 0.28 | 0.00 | 66 | 1011.1 |
| 20260507113534 | 49 | 335 | 4.0 | 8.0 | 0.00 | 0.28 | 0.00 | 66 | 1011.1 |
| 20260507113035 | 49 | 327 | 3.0 | 9.0 | 0.00 | 0.28 | 0.00 | 66 | 1011.1 |
| 20260507112532 | 49 | 332 | 4.0 | 9.0 | 0.00 | 0.28 | 0.00 | 67 | 1011.0 |
| 20260507112032 | 49 | 319 | 3.0 | 9.0 | 0.00 | 0.28 | 0.00 | 67 | 1010.9 |
| 20260507111531 | 49 | 330 | 3.0 | 8.0 | 0.00 | 0.28 | 0.00 | 66 | 1010.7 |
| 20260507111030 | 49 | 341 | 3.0 | 8.0 | 0.00 | 0.28 | 0.00 | 67 | 1010.7 |
| 20260507110530 | 49 | 338 | 3.0 | 8.0 | 0.00 | 0.28 | 0.00 | 66 | 1010.7 |
| 20260507110029 | 49 | 334 | 5.0 | 10.0 | 0.00 | 0.28 | 0.00 | 66 | 1010.7 |
| 20260507105528 | 49 | 327 | 4.0 | 10.0 | 0.00 | 0.30 | 0.00 | 66 | 1010.6 |
| 20260507105027 | 49 | 323 | 3.0 | 9.0 | 0.00 | 0.30 | 0.00 | 67 | 1010.5 |
| 20260507104526 | 49 | 332 | 5.0 | 9.0 | 0.00 | 0.30 | 0.00 | 66 | 1010.4 |
| 20260507104025 | 49 | 335 | 4.0 | 10.0 | 0.00 | 0.30 | 0.00 | 66 | 1010.4 |
| 20260507103524 | 49 | 341 | 5.0 | 10.0 | 0.00 | 0.30 | 0.00 | 67 | 1010.3 |
| 20260507103025 | 49 | 328 | 4.0 | 8.0 | 0.00 | 0.30 | 0.00 | 67 | 1010.3 |
| 20260507102523 | 49 | 343 | 3.0 | 6.0 | 0.00 | 0.30 | 0.00 | 67 | 1010.2 |
| 20260507102021 | 49 | 345 | 3.0 | 7.0 | 0.00 | 0.30 | 0.00 | 67 | 1010.1 |
| 20260507101522 | 49 | 333 | 3.0 | 8.0 | 0.00 | 0.30 | 0.00 | 67 | 1010.0 |
| 20260507101019 | 49 | 334 | 3.0 | 9.0 | 0.00 | 0.30 | 0.00 | 67 | 1010.0 |
| 20260507100519 | 49 | 344 | 4.0 | 9.0 | 0.00 | 0.30 | 0.00 | 66 | 1009.8 |
| 20260507100019 | 49 | 330 | 4.0 | 9.0 | 0.00 | 0.30 | 0.00 | 67 | 1009.9 |
| 20260507095518 | 49 | 335 | 3.0 | 8.0 | 0.00 | 0.30 | 0.00 | 67 | 1009.8 |
| 20260507095018 | 49 | 332 | 3.0 | 9.0 | 0.00 | 0.30 | 0.00 | 67 | 1009.8 |
| 20260507094518 | 49 | 334 | 5.0 | 9.0 | 0.00 | 0.30 | 0.00 | 67 | 1009.8 |
| 20260507094020 | 49 | 339 | 6.0 | 9.0 | 0.00 | 0.30 | 0.00 | 67 | 1009.8 |
| 20260507093516 | 49 | 341 | 4.0 | 8.0 | 0.00 | 0.30 | 0.00 | 67 | 1009.9 |
| 20260507093016 | 49 | 328 | 4.0 | 8.0 | 0.00 | 0.30 | 0.00 | 67 | 1009.9 |
| 20260507092516 | 49 | 329 | 4.0 | 8.0 | 0.00 | 0.30 | 0.00 | 67 | 1010.0 |
| 20260507092016 | 49 | 330 | 2.0 | 6.0 | 0.00 | 0.30 | 0.00 | 68 | 1009.8 |
| 20260507091516 | 49 | 330 | 3.0 | 8.0 | 0.00 | 0.30 | 0.00 | 67 | 1009.8 |
| 20260507091014 | 49 | 337 | 4.0 | 10.0 | 0.00 | 0.30 | 0.00 | 67 | 1009.8 |
| 20260507090514 | 49 | 329 | 5.0 | 11.0 | 0.00 | 0.30 | 0.00 | 66 | 1009.8 |
| 20260507090012 | 49 | 354 | 6.0 | 11.0 | 0.00 | 0.30 | 0.00 | 66 | 1009.6 |
| 20260507085511 | 49 | 330 | 4.0 | 9.0 | 0.00 | 0.30 | 0.00 | 67 | 1009.5 |
| 20260507085011 | 49 | 355 | 2.0 | 6.0 | 0.00 | 0.30 | 0.00 | 67 | 1009.5 |
| 20260507084514 | 49 | 347 | 3.0 | 9.0 | 0.00 | 0.30 | 0.00 | 68 | 1009.5 |
| 20260507084013 | 49 | 332 | 3.0 | 9.0 | 0.00 | 0.30 | 0.00 | 69 | 1009.4 |
| 20260507083509 | 50 | 330 | 2.0 | 6.0 | 0.00 | 0.30 | 0.00 | 68 | 1009.4 |
| 20260507083009 | 50 | 341 | 2.0 | 6.0 | 0.00 | 0.30 | 0.00 | 68 | 1009.4 |
| 20260507082508 | 50 | 330 | 3.0 | 8.0 | 0.00 | 0.30 | 0.00 | 70 | 1009.3 |
| 20260507082008 | 50 | 328 | 3.0 | 9.0 | 0.00 | 0.30 | 0.00 | 71 | 1009.3 |
| 20260507081509 | 50 | 330 | 5.0 | 10.0 | 0.00 | 0.30 | 0.00 | 70 | 1009.4 |
| 20260507081007 | 50 | 346 | 5.0 | 11.0 | 0.00 | 0.30 | 0.00 | 70 | 1009.3 |
| 20260507080506 | 49 | 9 | 6.0 | 11.0 | 0.00 | 0.30 | 0.00 | 72 | 1009.3 |
| 20260507080006 | 49 | 352 | 4.0 | 11.0 | 0.00 | 0.30 | 0.00 | 74 | 1009.3 |
| 20260507075505 | 50 | 354 | 2.0 | 4.0 | 0.00 | 0.30 | 0.00 | 76 | 1009.4 |
| 20260507075005 | 50 | 353 | 2.0 | 4.0 | 0.00 | 0.30 | 0.00 | 76 | 1009.2 |
| 20260507074506 | 50 | 359 | 2.0 | 5.0 | 0.00 | 0.30 | 0.00 | 76 | 1009.2 |
| 20260507074006 | 50 | 355 | 2.0 | 5.0 | 0.00 | 0.30 | 0.00 | 76 | 1009.2 |
| 20260507073504 | 50 | 1 | 1.0 | 6.0 | 0.00 | 0.30 | 0.00 | 77 | 1009.3 |
| 20260507073006 | 50 | 14 | 3.0 | 8.0 | 0.00 | 0.30 | 0.00 | 78 | 1009.3 |
| 20260507072502 | 50 | 19 | 4.0 | 8.0 | 0.00 | 0.30 | 0.00 | 78 | 1009.3 |
| 20260507072100 | 50 | 20 | 2.0 | 9.0 | 0.00 | 0.30 | 0.00 | 79 | 1009.3 |
| 20260507072001 | 50 | 12 | 2.0 | 10.0 | 0.00 | 0.30 | 0.00 | 79 | 1009.3 |
| 20260507071606 | 50 | 19 | 3.0 | 10.0 | 0.00 | 0.30 | 0.00 | 78 | 1009.3 |
| 20260507071059 | 50 | 30 | 6.0 | 9.0 | 0.00 | 0.30 | 0.00 | 80 | 1009.3 |
| 20260507070559 | 51 | 25 | 4.0 | 8.0 | 0.00 | 0.30 | 0.00 | 81 | 1009.4 |
| 20260507070104 | 51 | 25 | 3.0 | 8.0 | 0.00 | 0.30 | 0.00 | 81 | 1009.4 |
| 20260507065601 | 51 | 20 | 1.0 | 3.0 | 0.00 | 0.30 | 0.00 | 81 | 1009.5 |
| 20260507065058 | 51 | 20 | 0.0 | 2.0 | 0.00 | 0.30 | 0.00 | 81 | 1009.5 |
| 20260507064631 | 51 | 20 | 0.0 | 2.0 | 0.00 | 0.30 | 0.00 | 81 | 1009.6 |
| 20260507064059 | 51 | 20 | 0.0 | 4.0 | 0.00 | 0.30 | 0.00 | 80 | 1009.6 |
| 20260507063558 | 51 | 20 | 2.0 | 4.0 | 0.00 | 0.30 | 0.00 | 80 | 1009.3 |
| 20260507063109 | 51 | 344 | 1.0 | 6.0 | 0.00 | 0.30 | 0.00 | 80 | 1009.3 |
| 20260507062554 | 51 | 334 | 2.0 | 8.0 | 0.00 | 0.30 | 0.00 | 79 | 1009.3 |
| 20260507062055 | 51 | 315 | 4.0 | 8.0 | 0.00 | 0.30 | 0.00 | 79 | 1009.3 |
| 20260507061555 | 52 | 343 | 3.0 | 6.0 | 0.00 | 0.30 | 0.00 | 79 | 1009.4 |
| 20260507061053 | 52 | 335 | 3.0 | 8.0 | 0.00 | 0.30 | 0.00 | 79 | 1009.6 |
| 20260507060552 | 52 | 343 | 4.0 | 11.0 | 0.00 | 0.30 | 0.00 | 79 | 1009.3 |
| 20260507060113 | 52 | 342 | 5.0 | 11.0 | 0.00 | 0.30 | 0.00 | 78 | 1009.3 |
| 20260507055552 | 52 | 324 | 7.0 | 10.0 | 0.00 | 0.30 | 0.00 | 78 | 1009.4 |
| 20260507055051 | 52 | 359 | 6.0 | 10.0 | 0.00 | 0.30 | 0.00 | 78 | 1009.3 |
| 20260507054559 | 52 | 349 | 5.0 | 13.0 | 0.00 | 0.30 | 0.00 | 78 | 1009.2 |
| 20260507054050 | 52 | 359 | 6.0 | 13.0 | 0.00 | 0.30 | 0.00 | 78 | 1009.3 |
| 20260507053550 | 52 | 357 | 6.0 | 13.0 | 0.00 | 0.30 | 0.00 | 78 | 1009.1 |
| 20260507053512 | 52 | 47 | 6.0 | 13.0 | 0.00 | 0.30 | 0.00 | 78 | 1009.2 |
| 20260507050040 | 52 | 359 | 4.0 | 12.0 | 0.00 | 0.30 | 0.00 | 78 | 1008.9 |
| 20260507045530 | 52 | 334 | 4.0 | 13.0 | 0.00 | 0.30 | 0.00 | 78 | 1009.0 |
| 20260507045032 | 53 | 12 | 7.0 | 12.0 | 0.00 | 0.30 | 0.00 | 78 | 1009.2 |
| 20260507044529 | 53 | 3 | 7.0 | 13.0 | 0.00 | 0.30 | 0.00 | 78 | 1009.1 |
| 20260507044027 | 53 | 334 | 8.0 | 13.0 | 0.00 | 0.30 | 0.00 | 79 | 1009.0 |
| 20260507043527 | 53 | 8 | 7.0 | 13.0 | 0.00 | 0.30 | 0.00 | 79 | 1008.8 |
| 20260507043026 | 53 | 1 | 7.0 | 12.0 | 0.00 | 0.30 | 0.00 | 80 | 1008.9 |
| 20260507042528 | 53 | 351 | 5.0 | 12.0 | 0.00 | 0.30 | 0.00 | 80 | 1009.1 |
| 20260507042024 | 53 | 347 | 6.0 | 11.0 | 0.00 | 0.30 | 0.00 | 80 | 1009.1 |
| 20260507041527 | 53 | 331 | 3.0 | 11.0 | 0.00 | 0.30 | 0.00 | 80 | 1009.2 |
| 20260507041027 | 53 | 15 | 4.0 | 11.0 | 0.00 | 0.30 | 0.00 | 80 | 1009.0 |
| 20260507040521 | 53 | 352 | 3.0 | 8.0 | 0.00 | 0.30 | 0.00 | 80 | 1009.1 |
| 20260507040021 | 53 | 18 | 3.0 | 12.0 | 0.00 | 0.30 | 0.00 | 80 | 1009.1 |
| 20260507035520 | 53 | 341 | 3.0 | 12.0 | 0.00 | 0.30 | 0.30 | 80 | 1009.3 |
| 20260507035019 | 53 | 328 | 6.0 | 12.0 | 0.00 | 0.30 | 0.30 | 80 | 1009.1 |
| 20260507034518 | 53 | 338 | 7.0 | 12.0 | 0.00 | 0.30 | 0.30 | 81 | 1009.0 |
| 20260507034017 | 54 | 344 | 6.0 | 10.0 | 0.00 | 0.30 | 0.30 | 80 | 1008.8 |
| 20260507033517 | 54 | 356 | 5.0 | 10.0 | 0.00 | 0.30 | 0.30 | 81 | 1008.7 |
| 20260507033014 | 54 | 3 | 4.0 | 9.0 | 0.00 | 0.30 | 0.30 | 81 | 1008.8 |
| 20260507032514 | 54 | 1 | 4.0 | 8.0 | 0.00 | 0.30 | 0.30 | 81 | 1009.0 |
| 20260507032013 | 54 | 342 | 4.0 | 8.0 | 0.00 | 0.30 | 0.30 | 81 | 1009.1 |
| 20260507031513 | 54 | 14 | 3.0 | 9.0 | 0.00 | 0.30 | 0.30 | 81 | 1009.0 |
| 20260507031013 | 54 | 30 | 3.0 | 8.0 | 0.00 | 0.30 | 0.30 | 81 | 1009.0 |
| 20260507030516 | 54 | 25 | 2.0 | 8.0 | 0.00 | 0.30 | 0.30 | 81 | 1009.0 |
| 20260507030024 | 54 | 355 | 2.0 | 8.0 | 0.00 | 0.30 | 0.30 | 81 | 1009.0 |
| 20260507025511 | 54 | 25 | 3.0 | 10.0 | 0.00 | 0.30 | 0.30 | 81 | 1008.8 |
| 20260507025011 | 54 | 6 | 5.0 | 10.0 | 0.00 | 0.30 | 0.30 | 81 | 1008.6 |
| 20260507024515 | 54 | 39 | 4.0 | 8.0 | 0.00 | 0.30 | 0.30 | 81 | 1008.8 |
| 20260507024009 | 54 | 13 | 2.0 | 8.0 | 0.00 | 0.30 | 0.30 | 81 | 1009.0 |
| 20260507023508 | 54 | 332 | 2.0 | 9.0 | 0.00 | 0.30 | 0.30 | 81 | 1008.6 |
| 20260507023007 | 54 | 54 | 4.0 | 12.0 | 0.00 | 0.30 | 0.30 | 81 | 1008.2 |
| 20260507022508 | 54 | 331 | 4.0 | 14.0 | 0.00 | 0.30 | 0.30 | 81 | 1008.4 |
| 20260507022007 | 55 | 336 | 5.0 | 14.0 | 0.00 | 0.30 | 0.30 | 81 | 1008.7 |
| 20260507021505 | 55 | 336 | 5.0 | 11.0 | 0.00 | 0.30 | 0.30 | 81 | 1008.8 |
| 20260507021005 | 55 | 14 | 5.0 | 11.0 | 0.00 | 0.30 | 0.30 | 81 | 1008.8 |
| 20260507020504 | 55 | 357 | 3.0 | 9.0 | 0.00 | 0.30 | 0.30 | 81 | 1008.9 |
| 20260507020004 | 55 | 331 | 4.0 | 9.0 | 0.00 | 0.30 | 0.30 | 81 | 1008.6 |
| 20260507015506 | 55 | 358 | 3.0 | 9.0 | 0.00 | 0.30 | 0.30 | 81 | 1008.4 |
| 20260507015003 | 55 | 332 | 4.0 | 10.0 | 0.00 | 0.30 | 0.30 | 81 | 1008.5 |
| 20260507014504 | 55 | 347 | 5.0 | 15.0 | 0.00 | 0.30 | 0.30 | 81 | 1008.3 |
| 20260507014003 | 55 | 324 | 6.0 | 15.0 | 0.00 | 0.30 | 0.30 | 81 | 1008.3 |
| 20260507013601 | 55 | 321 | 8.0 | 15.0 | 0.00 | 0.30 | 0.30 | 81 | 1008.4 |
| 20260507013103 | 56 | 329 | 6.0 | 14.0 | 0.00 | 0.30 | 0.30 | 81 | 1008.4 |
| 20260507012602 | 56 | 359 | 8.0 | 14.0 | 0.00 | 0.30 | 0.30 | 81 | 1008.4 |
| 20260507012100 | 56 | 334 | 8.0 | 14.0 | 0.00 | 0.30 | 0.30 | 81 | 1008.3 |
| 20260507011557 | 56 | 338 | 8.0 | 12.0 | 0.00 | 0.30 | 0.30 | 81 | 1008.5 |
| 20260507011055 | 56 | 332 | 7.0 | 12.0 | 0.00 | 0.30 | 0.30 | 81 | 1008.4 |
| 20260507010555 | 57 | 345 | 6.0 | 11.0 | 0.00 | 0.30 | 0.30 | 81 | 1008.4 |
| 20260507010109 | 57 | 343 | 5.0 | 10.0 | 0.00 | 0.30 | 0.30 | 81 | 1008.3 |
| 20260507005553 | 57 | 328 | 4.0 | 10.0 | 0.00 | 0.30 | 0.30 | 81 | 1008.7 |
| 20260507005052 | 57 | 322 | 3.0 | 10.0 | 0.00 | 0.30 | 0.30 | 80 | 1008.8 |
| 20260507004551 | 57 | 339 | 4.0 | 9.0 | 0.00 | 0.30 | 0.30 | 80 | 1008.6 |
| 20260507004050 | 57 | 351 | 5.0 | 9.0 | 0.00 | 0.30 | 0.30 | 80 | 1008.4 |
| 20260507003549 | 58 | 16 | 3.0 | 10.0 | 0.00 | 0.30 | 0.30 | 80 | 1008.4 |
| 20260507003048 | 58 | 336 | 2.0 | 9.0 | 0.00 | 0.30 | 0.30 | 80 | 1008.5 |
| 20260507002547 | 58 | 347 | 4.0 | 9.0 | 0.00 | 0.30 | 0.30 | 80 | 1008.3 |
| 20260507002046 | 58 | 10 | 3.0 | 11.0 | 0.00 | 0.30 | 0.30 | 80 | 1008.2 |
| 20260507001554 | 58 | 352 | 5.0 | 11.0 | 0.00 | 0.30 | 0.30 | 80 | 1008.1 |
| 20260507001044 | 59 | 329 | 6.0 | 11.0 | 0.00 | 0.30 | 0.30 | 80 | 1007.9 |
| 20260507000543 | 59 | 335 | 4.0 | 13.0 | 0.00 | 0.30 | 0.30 | 80 | 1007.9 |
| 20260507000043 | 59 | 345 | 8.0 | 13.0 | 0.00 | 0.30 | 0.30 | 80 | 1007.8 |
| 20260506235543 | 59 | 328 | 4.0 | 9.0 | 0.00 | 0.30 | 0.30 | 80 | 1007.8 |
| 20260506235041 | 59 | 340 | 3.0 | 9.0 | 0.00 | 0.30 | 0.30 | 80 | 1007.9 |
| 20260506234542 | 60 | 341 | 2.0 | 10.0 | 0.00 | 0.30 | 0.30 | 80 | 1007.3 |
| 20260506234039 | 60 | 313 | 3.0 | 13.0 | 0.00 | 0.30 | 0.30 | 80 | 1007.2 |
| 20260506233638 | 60 | 303 | 3.0 | 13.0 | 0.00 | 0.30 | 0.30 | 80 | 1007.0 |
| 20260506233038 | 60 | 326 | 3.0 | 8.0 | 0.00 | 0.30 | 0.30 | 80 | 1006.7 |
| 20260506232538 | 60 | 329 | 2.0 | 5.0 | 0.00 | 0.30 | 0.30 | 80 | 1006.6 |
| 20260506232037 | 61 | 276 | 1.0 | 3.0 | 0.00 | 0.30 | 0.30 | 80 | 1006.9 |
| 20260506231544 | 61 | 273 | 0.0 | 8.0 | 0.00 | 0.30 | 0.30 | 80 | 1006.7 |
| 20260506231036 | 61 | 272 | 2.0 | 8.0 | 0.00 | 0.30 | 0.30 | 80 | 1006.8 |
| 20260506230536 | 61 | 284 | 1.0 | 5.0 | 0.00 | 0.30 | 0.30 | 79 | 1006.7 |
| 20260506230043 | 61 | 286 | 0.0 | 6.0 | 0.00 | 0.30 | 0.30 | 79 | 1006.7 |
| 20260506225535 | 61 | 274 | 1.0 | 6.0 | 0.00 | 0.30 | 0.30 | 79 | 1006.6 |
| 20260506225035 | 62 | 295 | 1.0 | 4.0 | 0.00 | 0.30 | 0.30 | 78 | 1006.5 |
| 20260506224538 | 62 | 276 | 1.0 | 5.0 | 0.00 | 0.30 | 0.30 | 78 | 1006.5 |
| 20260506224033 | 62 | 339 | 2.0 | 5.0 | 0.00 | 0.30 | 0.30 | 78 | 1006.5 |
| 20260506223536 | 62 | 330 | 1.0 | 5.0 | 0.00 | 0.30 | 0.30 | 78 | 1006.5 |
| 20260506223035 | 62 | 320 | 1.0 | 5.0 | 0.00 | 0.30 | 0.30 | 78 | 1006.3 |
| 20260506222534 | 62 | 265 | 1.0 | 5.0 | 0.00 | 0.30 | 0.30 | 78 | 1006.2 |
| 20260506222036 | 62 | 285 | 1.0 | 3.0 | 0.00 | 0.30 | 0.30 | 78 | 1006.3 |
| 20260506221536 | 62 | 285 | 1.0 | 4.0 | 0.00 | 0.30 | 0.30 | 77 | 1006.4 |
| 20260506221033 | 62 | 334 | 1.0 | 4.0 | 0.00 | 0.30 | 0.30 | 77 | 1006.1 |
| 20260506220534 | 62 | 268 | 0.0 | 4.0 | 0.00 | 0.30 | 0.30 | 77 | 1006.1 |
| 20260506220038 | 62 | 285 | 0.0 | 3.0 | 0.00 | 0.30 | 0.30 | 76 | 1006.0 |
| 20260506215533 | 62 | 285 | 0.0 | 8.0 | 0.00 | 0.30 | 0.30 | 76 | 1005.9 |
| 20260506215033 | 63 | 317 | 1.0 | 7.0 | 0.00 | 0.30 | 0.30 | 75 | 1006.0 |
| 20260506214537 | 63 | 285 | 1.0 | 7.0 | 0.00 | 0.30 | 0.30 | 74 | 1005.9 |
| 20260506214032 | 64 | 285 | 2.0 | 7.0 | 0.00 | 0.30 | 0.30 | 74 | 1005.8 |
| 20260506213532 | 64 | 285 | 1.0 | 7.0 | 0.00 | 0.30 | 0.30 | 73 | 1005.6 |
| 20260506213035 | 64 | 301 | 1.0 | 3.0 | 0.00 | 0.30 | 0.30 | 73 | 1005.6 |
| 20260506212532 | 64 | 256 | 0.0 | 3.0 | 0.00 | 0.30 | 0.30 | 73 | 1005.5 |
| 20260506212032 | 64 | 256 | 1.0 | 3.0 | 0.00 | 0.30 | 0.30 | 73 | 1005.4 |
| 20260506211535 | 64 | 264 | 0.0 | 3.0 | 0.00 | 0.30 | 0.30 | 73 | 1005.4 |
| 20260506211032 | 64 | 203 | 0.0 | 6.0 | 0.00 | 0.30 | 0.30 | 73 | 1005.2 |
| 20260506210532 | 64 | 203 | 1.0 | 6.0 | 0.00 | 0.30 | 0.30 | 73 | 1005.0 |
| 20260506210033 | 64 | 271 | 1.0 | 5.0 | 0.00 | 0.30 | 0.30 | 73 | 1004.8 |
| 20260506205531 | 64 | 208 | 1.0 | 4.0 | 0.00 | 0.30 | 0.30 | 73 | 1005.0 |
| 20260506205031 | 64 | 247 | 1.0 | 3.0 | 0.00 | 0.30 | 0.30 | 74 | 1004.9 |
| 20260506204535 | 64 | 210 | 1.0 | 5.0 | 0.00 | 0.30 | 0.30 | 74 | 1004.9 |
| 20260506204031 | 64 | 227 | 0.0 | 5.0 | 0.00 | 0.30 | 0.30 | 74 | 1004.9 |
| 20260506203530 | 65 | 218 | 0.0 | 5.0 | 0.00 | 0.30 | 0.30 | 73 | 1004.9 |
| 20260506203032 | 65 | 217 | 1.0 | 7.0 | 0.00 | 0.30 | 0.30 | 73 | 1004.8 |
| 20260506202530 | 65 | 228 | 1.0 | 7.0 | 0.00 | 0.30 | 0.30 | 73 | 1004.8 |
| 20260506202032 | 65 | 231 | 2.0 | 6.0 | 0.00 | 0.30 | 0.30 | 73 | 1004.8 |
| 20260506201537 | 65 | 249 | 1.0 | 6.0 | 0.00 | 0.30 | 0.30 | 72 | 1004.6 |
| 20260506201030 | 65 | 233 | 2.0 | 7.0 | 0.00 | 0.30 | 0.30 | 71 | 1004.6 |
| 20260506200530 | 66 | 228 | 2.0 | 7.0 | 0.00 | 0.30 | 0.30 | 70 | 1004.6 |
| 20260506200030 | 65 | 247 | 1.0 | 5.0 | 0.00 | 0.30 | 0.30 | 69 | 1004.7 |
| 20260506195528 | 65 | 237 | 2.0 | 5.0 | 0.00 | 0.30 | 0.30 | 68 | 1004.9 |
| 20260506195027 | 65 | 260 | 1.0 | 7.0 | 0.00 | 0.30 | 0.30 | 68 | 1004.8 |
| 20260506194527 | 64 | 241 | 2.0 | 9.0 | 0.00 | 0.30 | 0.30 | 69 | 1004.8 |
| 20260506194029 | 65 | 214 | 3.0 | 9.0 | 0.00 | 0.30 | 0.30 | 68 | 1005.0 |
| 20260506193526 | 65 | 208 | 2.0 | 8.0 | 0.00 | 0.30 | 0.30 | 67 | 1004.8 |
| 20260506193026 | 65 | 260 | 1.0 | 4.0 | 0.00 | 0.30 | 0.30 | 67 | 1004.8 |
| 20260506192526 | 65 | 234 | 2.0 | 4.0 | 0.01 | 0.30 | 0.30 | 66 | 1004.8 |
| 20260506192028 | 65 | 233 | 0.0 | 3.0 | 0.01 | 0.30 | 0.30 | 66 | 1004.9 |
| 20260506191525 | 64 | 238 | 1.0 | 3.0 | 0.02 | 0.30 | 0.30 | 66 | 1004.9 |
| 20260506191025 | 64 | 285 | 0.0 | 3.0 | 0.03 | 0.30 | 0.30 | 67 | 1004.9 |
| 20260506190524 | 63 | 304 | 1.0 | 3.0 | 0.03 | 0.30 | 0.30 | 67 | 1005.0 |
| 20260506190028 | 63 | 239 | 0.0 | 2.0 | 0.04 | 0.30 | 0.30 | 68 | 1005.1 |
| 20260506185524 | 63 | 240 | 0.0 | 2.0 | 0.04 | 0.30 | 0.30 | 68 | 1005.1 |
| 20260506185024 | 63 | 223 | 0.0 | 3.0 | 0.05 | 0.30 | 0.30 | 69 | 1005.2 |
| 20260506184525 | 63 | 224 | 0.0 | 5.0 | 0.05 | 0.30 | 0.30 | 69 | 1005.2 |
| 20260506184025 | 63 | 210 | 1.0 | 5.0 | 0.05 | 0.30 | 0.30 | 69 | 1005.2 |
| 20260506183524 | 63 | 273 | 0.0 | 4.0 | 0.05 | 0.30 | 0.30 | 69 | 1005.2 |
| 20260506183023 | 63 | 266 | 1.0 | 4.0 | 0.05 | 0.30 | 0.30 | 70 | 1005.4 |
| 20260506182527 | 63 | 272 | 0.0 | 2.0 | 0.04 | 0.28 | 0.28 | 70 | 1005.4 |
| 20260506182023 | 63 | 270 | 0.0 | 2.0 | 0.03 | 0.28 | 0.28 | 70 | 1005.5 |
| 20260506181523 | 63 | 267 | 0.0 | 2.0 | 0.03 | 0.28 | 0.28 | 70 | 1005.4 |
| 20260506181023 | 63 | 269 | 0.0 | 2.0 | 0.02 | 0.27 | 0.27 | 71 | 1005.4 |
| 20260506180523 | 63 | 270 | 0.0 | 3.0 | 0.02 | 0.27 | 0.27 | 72 | 1005.4 |
| 20260506180030 | 63 | 228 | 1.0 | 5.0 | 0.01 | 0.26 | 0.26 | 72 | 1005.4 |
| 20260506175522 | 63 | 228 | 1.0 | 5.0 | 0.01 | 0.26 | 0.26 | 73 | 1005.4 |
| 20260506175022 | 63 | 245 | 1.0 | 4.0 | 0.00 | 0.25 | 0.25 | 72 | 1005.4 |
| 20260506174525 | 63 | 230 | 1.0 | 4.0 | 0.00 | 0.25 | 0.25 | 72 | 1005.4 |
| 20260506174021 | 63 | 232 | 1.0 | 7.0 | 0.00 | 0.25 | 0.25 | 72 | 1005.2 |
| 20260506173522 | 63 | 209 | 1.0 | 7.0 | 0.00 | 0.25 | 0.25 | 72 | 1005.1 |
| 20260506173024 | 63 | 249 | 1.0 | 11.0 | 0.00 | 0.25 | 0.25 | 72 | 1005.1 |
| 20260506172521 | 63 | 218 | 2.0 | 11.0 | 0.00 | 0.25 | 0.25 | 72 | 1005.2 |
| 20260506172021 | 62 | 212 | 3.0 | 6.0 | 0.00 | 0.25 | 0.25 | 72 | 1005.1 |
| 20260506171534 | 62 | 244 | 1.0 | 4.0 | 0.00 | 0.25 | 0.25 | 72 | 1005.0 |
| 20260506171020 | 62 | 192 | 1.0 | 5.0 | 0.00 | 0.25 | 0.25 | 72 | 1005.1 |
| 20260506170524 | 62 | 235 | 1.0 | 5.0 | 0.00 | 0.25 | 0.25 | 72 | 1005.1 |
| 20260506170021 | 62 | 227 | 1.0 | 8.0 | 0.00 | 0.25 | 0.25 | 71 | 1005.0 |
| 20260506165520 | 62 | 230 | 2.0 | 10.0 | 0.00 | 0.25 | 0.25 | 71 | 1005.0 |
| 20260506165020 | 62 | 232 | 2.0 | 11.0 | 0.00 | 0.25 | 0.25 | 71 | 1005.2 |
| 20260506164523 | 62 | 203 | 5.0 | 11.0 | 0.00 | 0.25 | 0.25 | 70 | 1005.2 |
| 20260506164019 | 61 | 215 | 1.0 | 14.0 | 0.00 | 0.25 | 0.25 | 70 | 1005.1 |
| 20260506163519 | 61 | 187 | 3.0 | 10.0 | 0.00 | 0.25 | 0.25 | 70 | 1005.1 |
| 20260506163019 | 61 | 233 | 3.0 | 14.0 | 0.00 | 0.25 | 0.25 | 70 | 1005.1 |
| 20260506162518 | 61 | 218 | 5.0 | 14.0 | 0.00 | 0.25 | 0.25 | 70 | 1005.1 |
| 20260506162019 | 61 | 201 | 4.0 | 12.0 | 0.00 | 0.25 | 0.25 | 70 | 1005.0 |
| 20260506161519 | 61 | 195 | 4.0 | 12.0 | 0.00 | 0.25 | 0.25 | 70 | 1005.0 |
| 20260506161018 | 61 | 191 | 6.0 | 13.0 | 0.00 | 0.25 | 0.25 | 69 | 1004.9 |
| 20260506160518 | 61 | 223 | 3.0 | 15.0 | 0.00 | 0.25 | 0.25 | 68 | 1005.1 |
| 20260506160021 | 61 | 212 | 6.0 | 19.0 | 0.00 | 0.25 | 0.25 | 68 | 1005.0 |
| 20260506155518 | 60 | 224 | 9.0 | 21.0 | 0.00 | 0.25 | 0.25 | 68 | 1004.8 |
| 20260506155017 | 60 | 215 | 6.0 | 21.0 | 0.00 | 0.25 | 0.25 | 69 | 1004.9 |
| 20260506154519 | 60 | 214 | 8.0 | 15.0 | 0.00 | 0.25 | 0.25 | 69 | 1004.9 |
| 20260506154015 | 60 | 209 | 5.0 | 17.0 | 0.00 | 0.25 | 0.25 | 68 | 1004.9 |
| 20260506153516 | 60 | 208 | 8.0 | 17.0 | 0.00 | 0.25 | 0.25 | 68 | 1004.7 |
| 20260506153015 | 60 | 228 | 6.0 | 14.0 | 0.01 | 0.25 | 0.25 | 68 | 1004.7 |
| 20260506152517 | 60 | 201 | 7.0 | 15.0 | 0.02 | 0.25 | 0.25 | 69 | 1004.8 |
| 20260506152015 | 60 | 239 | 7.0 | 14.0 | 0.03 | 0.25 | 0.25 | 69 | 1004.9 |
| 20260506151521 | 60 | 228 | 5.0 | 14.0 | 0.05 | 0.25 | 0.25 | 69 | 1005.0 |
| 20260506151014 | 60 | 199 | 3.0 | 14.0 | 0.07 | 0.25 | 0.25 | 69 | 1005.0 |
| 20260506150514 | 60 | 225 | 5.0 | 14.0 | 0.08 | 0.25 | 0.25 | 69 | 1004.9 |
| 20260506150014 | 60 | 228 | 3.0 | 9.0 | 0.09 | 0.25 | 0.25 | 69 | 1004.7 |
| 20260506145513 | 59 | 285 | 2.0 | 8.0 | 0.11 | 0.25 | 0.25 | 69 | 1004.5 |
| 20260506145013 | 59 | 213 | 2.0 | 5.0 | 0.12 | 0.25 | 0.25 | 69 | 1004.7 |
| 20260506144513 | 59 | 253 | 0.0 | 11.0 | 0.13 | 0.25 | 0.25 | 70 | 1004.6 |
| 20260506144013 | 59 | 212 | 3.0 | 11.0 | 0.13 | 0.25 | 0.25 | 70 | 1004.9 |
| 20260506143514 | 59 | 210 | 2.0 | 9.0 | 0.14 | 0.25 | 0.25 | 70 | 1005.1 |
| 20260506143012 | 59 | 205 | 2.0 | 9.0 | 0.14 | 0.24 | 0.24 | 70 | 1005.0 |
| 20260506142511 | 59 | 210 | 3.0 | 13.0 | 0.13 | 0.23 | 0.23 | 71 | 1005.2 |
| 20260506142014 | 58 | 214 | 6.0 | 13.0 | 0.12 | 0.22 | 0.22 | 71 | 1005.5 |
| 20260506141513 | 58 | 203 | 6.0 | 21.0 | 0.10 | 0.20 | 0.20 | 71 | 1005.7 |
| 20260506141011 | 59 | 185 | 6.0 | 21.0 | 0.09 | 0.18 | 0.18 | 71 | 1005.9 |